Location: Treviso
(45.6669°N, 12.2430°E)
Time: 11:50:13
(UTC+02:00)

ISS - Pass Details

Date: 20 May 2018
Orbit: 402 x 407 km, 51.6° (Epoch: 27 May)

Event Time Altitude Azimuth Distance (km) Brightness Sun altitude
Rises 21:31:01 0° 194° (SSW) 2,306 -0.3 -8.0°
Reaches altitude 10° 21:33:45 10° 169° (S) 1,451 -1.5 -8.3°
Maximum altitude 21:35:37 15° 134° (SE) 1,212 -2.1 -8.6°
Drops below altitude 10° 21:37:30 10° 99° (E) 1,456 -1.5 -8.8°
Sets 21:40:15 0° 74° (ENE) 2,319 -0.3 -9.2°
